Content
SEND FEEDBACK

Daily
Averages
Monthly
Summary
United States of America

DEMING - AIRPORT, NEW MEXICO


Home > North America > United States > New Mexico
Elevation: 4300 feet     Latitude: 32 15N     Longitude: 107 42W

WEATHER
 
SELECT A DAY
Number of Records: 141,610;   Date Range: 1/1/95 - 8/30/14
 
SHARE

PRINT THIS DATA

[ ← Previous Day ]
WEATHER ALMANAC - FEBRUARY 18, 2013
[ Next Day → ]
[ °C ]   °F
Weather ElementAverageHighLow
Temperature50 °F62.1 °F (12:53 pm)37 °F (3:53 am)
Dewpoint6.6 °F12.9 °F (9:53 am)1.9 °F (4:53 pm)
Humidity18.9 %31 % (7:53 am)10 % (1:53 pm)
Barometer29.93 in30.01 in (8:53 am)29.84 in (1:53 am)
Wind Speed9.4 mph16.1 mph (4:53 am)
Wind Gust24.2 mph (1:53 pm)
Weather ElementAverage
Visibility10 mi
Wind DirectionWSW (255.9 °)

Weather ElementTotal
Precipitation---
Heating Degree Days15.5 (Base 65)
Averaged from 22 records on February 18, 2013
WEATHER CONDITIONS BREAKOUT
WIND DIRECTION BREAKOUT
WEATHER BY HOUR - FEBRUARY 18, 2013
[ °C ]   °F
Local TimeTemperatureDewpointHumidityBarometerVisibilityWind DirectionWind SpeedGust SpeedPrecipitationEventsConditions
1:53 AM41.0 °F7.0 °F25 %29.84 in10.0 miWSW (240°)6.9 mphClear
2:53 AM39.0 °F8.1 °F28 %29.85 in10.0 miWSW (240°)11.5 mphClear
3:53 AM37.0 °F8.1 °F30 %29.87 in10.0 miWest (280°)9.2 mphClear
4:53 AM39.0 °F9.0 °F29 %29.86 in10.0 miWest (270°)16.1 mphClear
5:53 AM41.0 °F9.0 °F27 %29.89 in10.0 miNNW (340°)6.9 mph17.3 mphClear
7:53 AM37.0 °F9.0 °F31 %30.00 in10.0 miCalmClear
8:53 AM46.0 °F10.9 °F24 %30.01 in10.0 miWSW (240°)4.6 mphClear
9:53 AM52.0 °F12.9 °F21 %30.01 in10.0 miSSW (210°)9.2 mphClear
10:53 AM57.9 °F12.0 °F16 %29.98 in10.0 miNW (310°)13.8 mph17.3 mphClear
11:53 AM61.0 °F9.0 °F13 %29.95 in10.0 miWest (270°)15.0 mphClear
12:53 PM62.1 °F6.1 °F11 %29.93 in10.0 miWest (270°)15.0 mph23.0 mphClear
1:53 PM62.1 °F5.0 °F10 %29.91 in10.0 miWSW (240°)15.0 mph24.2 mphClear
2:53 PM62.1 °F5.0 °F10 %29.91 in10.0 miWSW (240°)15.0 mphClear
3:53 PM62.1 °F3.9 °F10 %29.91 in10.0 miWSW (250°)13.8 mph24.2 mphClear
4:53 PM60.1 °F1.9 °F10 %29.90 in10.0 miWNW (290°)12.7 mphClear
5:53 PM57.0 °F1.9 °F11 %29.91 in10.0 miWNW (290°)8.1 mphClear
6:53 PM54.0 °F1.9 °F12 %29.95 in10.0 miNW (310°)4.6 mphClear
7:53 PM52.0 °F3.0 °F14 %29.94 in10.0 miNW (320°)8.1 mphClear
8:53 PM48.9 °F5.0 °F17 %29.94 in10.0 miWNW (300°)6.9 mphClear
9:53 PM46.9 °F3.9 °F17 %29.94 in10.0 miSSW (200°)4.6 mphClear
10:53 PM43.0 °F7.0 °F23 %29.93 in10.0 miWSW (240°)4.6 mphClear
11:53 PM39.0 °F6.1 °F26 %29.93 in10.0 miWest (280°)5.8 mphClear
Hourly data recorded from KDMN, located miles away from Deming - Airport, New Mexico







STORIES FROM OUR PARTNERS